Regional Weather Roundup
Issued by NWS Bismarck, ND

Home | Current Version | Previous Version | Text Only | Print | Product List | Glossary On
Versions: 1 2 3 4 5 6 7 8 9 10 11 12 13 14 15 16 17 18 19 20 21 22 23 24 25 26 27 28 29 30 31 32 33 34 35 36 37 38 39 40 41 42 43 44 45 46 47 48 49 50
000
ASUS43 KBIS 202159
RWRBIS

NWR BROADCAST TEXT
NATIONAL WEATHER SERVICE BISMARCK ND
400 PM CST THU NOV 20 2014

NOTE: "FAIR" INDICATES FEW OR NO CLOUDS BELOW 12,000 FEET WITH NO
SIGNIFICANT WEATHER AND/OR OBSTRUCTIONS TO VISIBILITY.


CITY           SKY/WX    TMP DP  RH WIND       PRES   REMARKS
WILLISTON      PTCLDY    22  13  68 S9        29.89F WCI  12
MINOT          CLEAR     21   8  57 S15       29.95F WCI   8
MINOT AFB      NOT AVBL
BISMARCK       CLEAR     21  10  62 S13       30.03F WCI   9
DICKINSON      NOT AVBL
GARRISON         N/A     20  11  68 S13       29.96F WCI   7
HETTINGER ARPT CLEAR     27  20  75 SE12      29.92F WCI  17
JAMESTOWN      NOT AVBL
CARRINGTON     FAIR      19  10  68 S10       30.05F WCI   8
CROSBY         FAIR      19  10  68 S13       29.88F WCI   7
OAKES            N/A     18   9  68 SW6       30.11S WCI   9
$$

CITY           SKY/WX    TMP DP  RH WIND       PRES   REMARKS
GRAND FORKS    PTCLDY    19   3  49 SW6       30.12S WCI  11
GRAND FORKS AF NOT AVBL
DEVILS LAKE    CLEAR     19   3  49 SW10      30.03F WCI   8
FARGO          CLEAR     21   2  43 SW3       30.14F
GRAFTON        FAIR      16   5  62 SE8       30.11S WCI   5
ROLLA          FAIR      16   7  67 SW13      29.98F WCI   2
$$

CITY           SKY/WX    TMP DP  RH WIND       PRES   REMARKS
ABERDEEN       CLEAR     16   9  74 SE9       30.14S WCI   4
MOBRIDGE       PTCLDY    24  15  68 S8        30.03S WCI  15
BUFFALO          N/A     32  24  72 S9        29.82F
RAPID CITY     SUNNY     26  20  77 SE7       29.91F WCI  18
GLASGOW        SUNNY     25  19  78 E7        29.81F WCI  17
SIDNEY         MOCLDY    27  18  69 SE7       29.90F WCI  19
WOLF POINT     PTCLDY    29  20  69 CALM      29.85F
GLENDIVE       PTCLDY    27  18  69 S9        29.86S WCI  17
MILES CITY     SUNNY     35  24  64 SE3       29.84S
BAKER          SUNNY     34  23  64 SE7       29.85F
$$

CITY           SKY/WX    TMP DP  RH WIND       PRES   REMARKS
BILLINGS       MOSUNNY   42  22  44 SW16      29.83F
GREAT FALLS    PTSUNNY   45  25  45 SW18      29.78S
$$



USA.gov is the U.S. government's official web portal to all federal, state and local government web resources and services.